PLEIADES YEARLING

导读 | 豆包AI

PLEIADES YEARLING是美国于2023年4月15日8时发射的卫星,延续了Pleiades系列超高分辨率光学遥感的技术定位。该卫星继承了该家族亚米级成像、灵活侧摆与高频重访优势,可服务于测绘、城市监测、灾害应急等军民场景。它的入轨进一步强化了全球高分辨率对地观测能力,提升了对特定区域快速响应与高频次数据采集的覆盖效率。

基本信息
目录编号:
56207
目录名称:
PLEIADES YEARLING
国际标识:
2023-054AF
轨道中心:
EARTH
卫星名称:
PLEIADES YEARLING
卫星全名:
--
卫星状态:
已陨落 最后检测时间 2024-08-12
发射日期:
2023-04-15 UTC
国别 :
美国 (US)
星等 :
--
轨道信息
数据来源 国际轨道数据
星历时间: 2024-08-11T16:27:33+0800
轨道信息已过期617天
半长轴: 6582.888km
偏心率: 0.0009655
轨道倾角: 97.335°
近地点辐角 199.438°
升交点赤经 130.384°
平近点角 160.655°
近地点: 198.397km
远地点: 211.109km
周期: 88.590分钟
每日圈数: 16.25467
详细信息
使用方式:
暂无